This is the latest recevied weather packets stored in our database for station/object SQ5AAG-2. If no packets are shown the sender has not sent any weather packets the latest 10 day(s).
| Time | Temp. | Humidity | Pressure | Rain* | Wind** | Luminosity | Snow |
|---|---|---|---|---|---|---|---|
| 1777534884 | 7.22° C | 48% | 1016.4 hPa | 0 mm | - | - | - |
| 1777534584 | 7.22° C | 52% | 1016.3 hPa | 0 mm | - | - | - |
| 1777534283 | 6.67° C | 53% | 1016.3 hPa | 0 mm | - | - | - |
| 1777533983 | 6.11° C | 54% | 1016.5 hPa | 0 mm | - | - | - |
| 1777533683 | 5.56° C | 55% | 1016.4 hPa | 0 mm | - | - | - |
| 1777533390 | 5.56° C | 57% | 1016.4 hPa | 0 mm | - | - | - |
| 1777533382 | 5.56° C | 57% | 1016.4 hPa | 0 mm | - | - | - |
| 1777533082 | 5° C | 57% | 1016.5 hPa | 0 mm | - | - | - |
| 1777532782 | 5° C | 58% | 1016.6 hPa | 0 mm | - | - | - |
| 1777532482 | 5° C | 59% | 1016.5 hPa | 0 mm | - | - | - |
| 1777532181 | 5° C | 59% | 1016.6 hPa | 0 mm | - | - | - |
| 1777531881 | 5° C | 59% | 1016.7 hPa | 0 mm | - | - | - |
| 1777531581 | 5° C | 60% | 1016.7 hPa | 0 mm | - | - | - |
| 1777531280 | 4.44° C | 60% | 1016.7 hPa | 0 mm | - | - | - |
| 1777530980 | 4.44° C | 59% | 1016.7 hPa | 0 mm | - | - | - |
| 1777530680 | 4.44° C | 58% | 1016.7 hPa | 0 mm | - | - | - |
| 1777530380 | 4.44° C | 57% | 1016.4 hPa | 0 mm | - | - | - |
| 1777530079 | 4.44° C | 56% | 1016.5 hPa | 0 mm | - | - | - |
| 1777529779 | 5.56° C | 52% | 1016.6 hPa | 0 mm | - | - | - |
| 1777529479 | 6.67° C | 51% | 1016.5 hPa | 0 mm | - | - | - |
| 1777529178 | 7.22° C | 51% | 1016.4 hPa | 0 mm | - | - | - |
| 1777528878 | 8.33° C | 52% | 1016.4 hPa | 0 mm | - | - | - |
| 1777528578 | 7.78° C | 54% | 1016.4 hPa | 0 mm | - | - | - |
| 1777528278 | 7.22° C | 54% | 1016.4 hPa | 0 mm | - | - | - |
| 1777527977 | 6.67° C | 55% | 1016.4 hPa | 0 mm | - | - | - |
* Rain latest hour (hover to see other rain measurements)
** Current wind speed in m/s (hover to see current wind gust speed)